Погода в Щекино

Россия / Вологодская область     60°39′01″N   46°12′39″E
темп.,
°C
ветер,
м/с
пор.,
м/с
влажн.,
%
обл.,
%
осадки,
мм/ч
давл.,
гПа
погр.,
м
26 июля, пн
пн2600:00+14зюз376687 0.0 1017201
03:00+12зюз3107368 0.0 1017250
06:00+13зюз31173100 0.0 1017348
09:00+16зюз256875 0.0 1016402
12:00+20з585692 0.9 10151612
15:00+18сз495497 1.1 10151038
18:00+14зсз3109379 1.6 1015661
21:00+12сз27975 1.7 1016215
27 июля, вт
вт2700:00+10зсз259724 0.0 101695
03:00+8сз279817 0.0 1017175
06:00+9ссз26913 0.0 1019281
09:00+14сз355242 0.0 10181020
12:00+18сз574220 0.0 10171855
15:00+20сз583553 0.0 10162608
18:00+19зсз48426 0.0 10152256
21:00+12зсз38655 0.0 1015144
28 июля, ср
ср2800:00+10зсз38755 0.0 1016132
03:00+8сз248215 0.0 101666
06:00+11сз236729 0.0 1015194
09:00+17зсз244624 0.0 1014992
12:00+21зсз353732 0.0 10121879
15:00+19св3349100 0.0 1010494
18:00+14ююв367976 0.3 1008182
21:00+12зюз2119646 1.3 1007263
29 июля, чт
чт2900:00+12з289626 0.7 1006164
03:00+11з22965 0.8 100523
06:00+14зсз13925 0.0 1005130
09:00+21зсз23615 0.0 1004626
12:00+25з234417 0.0 10031527
15:00+26з2440100 0.0 10012366
18:00+24св126074 0.0 100174
21:00+17ссв2484100 0.6 100093
30 июля, пт
пт3000:00+14в249898 2.1 100098
03:00+14юз2698100 2.1 999123
06:00+16зюз31096100 1.5 999504
09:00+17юз3796100 2.8 999493
12:00+20з578728 2.1 1000948
15:00+23зсз595030 3.3 10001804
18:00+18з5117786 0.3 10021016
21:00+16з4108163 0.3 1003669